Time,TemperatureF,DewpointF,PressureIn,WindDirection,WindDirectionDegrees,WindSpeedMPH,WindSpeedGustMPH,Humidity,HourlyPrecipIn,Conditions,Clouds,dailyrainin,SoftwareType,DateUTC
2013-09-02 00:05:00,64.5,64.5,29.82,ENE,72,0.0,0.0,100,0.00,,,0.03,Wunderground v.1.15,2013-09-02 07:05:00,
2013-09-02 00:35:00,64.3,64.3,29.82,ENE,72,0.0,0.0,100,0.00,,,0.01,Wunderground v.1.15,2013-09-02 07:35:00,
2013-09-02 01:05:00,64.3,64.3,29.82,ENE,72,0.0,0.0,100,0.00,,,0.02,Wunderground v.1.15,2013-09-02 08:05:00,
2013-09-02 01:35:00,63.7,63.7,29.82,ENE,72,0.0,0.0,100,0.00,,,0.03,Wunderground v.1.15,2013-09-02 08:35:00,
2013-09-02 02:05:00,62.9,62.9,29.82,ENE,72,0.0,0.0,100,0.00,,,0.03,Wunderground v.1.15,2013-09-02 09:05:00,
2013-09-02 02:35:00,62.1,62.1,29.83,ENE,72,0.0,0.0,100,0.00,,,0.04,Wunderground v.1.15,2013-09-02 09:35:00,
2013-09-02 03:05:00,62.3,62.3,29.82,ENE,59,0.0,0.0,100,0.00,,,0.04,Wunderground v.1.15,2013-09-02 10:05:00,
2013-09-02 03:35:00,62.6,62.6,29.82,ENE,59,0.0,0.0,100,0.00,,,0.04,Wunderground v.1.15,2013-09-02 10:35:00,
2013-09-02 04:05:00,62.4,62.4,29.82,ENE,59,0.0,0.0,100,0.13,,,0.08,Wunderground v.1.15,2013-09-02 11:05:00,
2013-09-02 04:35:00,62.4,62.4,29.82,ENE,66,0.0,0.0,100,0.08,,,0.14,Wunderground v.1.15,2013-09-02 11:35:00,
2013-09-02 05:05:00,63.1,63.1,29.82,ENE,66,0.0,0.0,100,0.00,,,0.14,Wunderground v.1.15,2013-09-02 12:05:00,
2013-09-02 05:35:00,63.1,63.1,29.82,ENE,66,0.0,0.0,100,0.00,,,0.14,Wunderground v.1.15,2013-09-02 12:35:00,
2013-09-02 06:05:00,62.7,62.7,29.82,NNE,31,0.0,0.0,100,0.00,,,0.14,Wunderground v.1.15,2013-09-02 13:05:00,
2013-09-02 06:35:00,62.3,62.3,29.83,ENE,58,0.0,0.0,100,0.00,,,0.14,Wunderground v.1.15,2013-09-02 13:35:00,
2013-09-02 07:05:00,62.0,62.0,29.83,ENE,64,0.0,0.0,100,0.00,,,0.14,Wunderground v.1.15,2013-09-02 14:05:00,
2013-09-02 07:35:00,61.8,61.8,29.84,ENE,78,0.0,0.0,100,0.00,,,0.14,Wunderground v.1.15,2013-09-02 14:35:00,
2013-09-02 08:05:00,62.1,62.1,29.85,ENE,78,0.0,0.0,100,0.00,,,0.14,Wunderground v.1.15,2013-09-02 15:05:00,
2013-09-02 08:35:00,63.1,63.1,29.85,ENE,78,0.0,0.0,100,0.00,,,0.14,Wunderground v.1.15,2013-09-02 15:35:00,
2013-09-02 09:05:00,64.5,64.5,29.85,East,79,0.0,0.0,100,0.00,,,0.14,Wunderground v.1.15,2013-09-02 16:05:00,
2013-09-02 09:35:00,65.2,65.2,29.86,East,79,0.0,0.0,100,0.00,,,0.14,Wunderground v.1.15,2013-09-02 16:35:00,
2013-09-02 10:05:00,65.2,65.2,29.86,East,79,0.0,0.0,100,0.00,,,0.14,Wunderground v.1.15,2013-09-02 17:05:00,
2013-09-02 10:35:00,64.5,64.5,29.86,East,79,0.0,0.0,100,0.00,,,0.14,Wunderground v.1.15,2013-09-02 17:35:00,
2013-09-02 11:05:00,65.8,65.8,29.86,ENE,71,0.0,0.0,100,0.00,,,0.14,Wunderground v.1.15,2013-09-02 18:05:00,
2013-09-02 11:35:00,68.4,68.4,29.86,ENE,71,0.0,0.0,100,0.00,,,0.14,Wunderground v.1.15,2013-09-02 18:35:00,
2013-09-02 12:05:00,69.1,67.3,29.86,NNE,16,0.0,0.0,94,0.00,,,0.14,Wunderground v.1.15,2013-09-02 19:05:00,
2013-09-02 12:35:00,70.1,67.7,29.86,WNW,289,0.0,0.0,92,0.00,,,0.14,Wunderground v.1.15,2013-09-02 19:35:00,
2013-09-02 13:05:00,71.3,67.2,29.86,NNE,18,0.0,0.0,87,0.00,,,0.14,Wunderground v.1.15,2013-09-02 20:05:00,
2013-09-02 13:35:00,70.9,67.5,29.86,West,264,0.0,0.0,89,0.00,,,0.14,Wunderground v.1.15,2013-09-02 20:35:00,
2013-09-02 14:05:00,72.5,68.1,29.86,WSW,258,0.0,0.0,86,0.00,,,0.14,Wunderground v.1.15,2013-09-02 21:05:00,
2013-09-02 14:35:00,72.7,68.3,29.86,North,0,0.0,0.0,86,0.00,,,0.14,Wunderground v.1.15,2013-09-02 21:35:00,
2013-09-02 15:05:00,73.7,69.2,29.86,NE,54,0.0,0.0,86,0.00,,,0.14,Wunderground v.1.15,2013-09-02 22:05:00,
2013-09-02 15:35:00,74.2,69.1,29.87,East,79,0.0,0.0,84,0.00,,,0.14,Wunderground v.1.15,2013-09-02 22:35:00,
2013-09-02 16:05:00,73.7,67.9,29.86,East,83,0.0,0.0,82,0.00,,,0.14,Wunderground v.1.15,2013-09-02 23:05:00,
2013-09-02 16:35:00,73.0,66.8,29.86,NE,40,0.0,0.0,81,0.00,,,0.14,Wunderground v.1.15,2013-09-02 23:35:00,
2013-09-02 17:05:00,72.7,66.5,29.86,NE,40,0.0,0.0,81,0.00,,,0.14,Wunderground v.1.15,2013-09-03 00:05:00,
2013-09-02 17:35:00,72.0,65.8,29.86,ESE,109,0.0,0.0,81,0.00,,,0.14,Wunderground v.1.15,2013-09-03 00:35:00,
2013-09-02 18:05:00,70.8,65.4,29.86,East,95,0.0,0.0,83,0.00,,,0.14,Wunderground v.1.15,2013-09-03 01:05:00,
2013-09-02 18:35:00,68.4,63.4,29.86,East,90,0.0,0.0,84,0.00,,,0.14,Wunderground v.1.15,2013-09-03 01:35:00,
2013-09-02 19:05:00,66.1,61.5,29.85,East,90,0.0,0.0,85,0.00,,,0.14,Wunderground v.1.15,2013-09-03 02:05:00,
2013-09-02 19:35:00,64.8,60.5,29.86,East,90,0.0,0.0,86,0.00,,,0.14,Wunderground v.1.15,2013-09-03 02:35:00,
2013-09-02 20:05:00,63.5,60.5,29.86,East,90,0.0,0.0,90,0.00,,,0.14,Wunderground v.1.15,2013-09-03 03:05:00,
2013-09-02 20:35:00,62.3,60.2,29.86,East,90,0.0,0.0,93,0.00,,,0.14,Wunderground v.1.15,2013-09-03 03:35:00,
2013-09-02 21:05:00,60.9,60.3,29.87,East,90,0.0,0.0,98,0.00,,,0.14,Wunderground v.1.15,2013-09-03 04:05:00,
2013-09-02 21:35:00,59.8,59.8,29.88,East,90,0.0,0.0,100,0.00,,,0.14,Wunderground v.1.15,2013-09-03 04:35:00,
2013-09-02 22:05:00,58.9,58.9,29.88,East,90,0.0,0.0,100,0.00,,,0.14,Wunderground v.1.15,2013-09-03 05:05:00,
2013-09-02 22:35:00,58.4,58.4,29.88,East,90,0.0,0.0,100,0.00,,,0.14,Wunderground v.1.15,2013-09-03 05:35:00,
2013-09-02 23:05:00,58.0,58.0,29.88,NE,51,0.0,0.0,100,0.00,,,0.14,Wunderground v.1.15,2013-09-03 06:05:00,
2013-09-02 23:35:00,57.5,57.5,29.89,ENE,68,0.0,0.0,100,0.00,,,0.14,Wunderground v.1.15,2013-09-03 06:35:00,